Regional Weather Roundup
Issued by NWS

Home | Current Version | Previous Version | Graphics & Text | Print | Product List | Glossary On
Versions: 1 2 3 4 5 6 7 8 9 10 11 12 13 14 15 16 17 18 19 20 21 22 23 24 25 26 27 28 29 30 31 32 33 34 35 36 37 38 39 40 41 42 43 44 45 46 47 48 49 50
000
ASUS43 KMPX 020910
RWRMN
WEATHER ROUNDUP FOR MINNESOTA
NATIONAL WEATHER SERVICE TWIN CITIES/CHANHASSEN MN
400 AM CDT SAT AUG 02 2014


NOTE: "FAIR" INDICATES FEW OR NO CLOUDS BELOW 12,000 FEET WITH NO
SIGNIFICANT WEATHER AND/OR OBSTRUCTIONS TO VISIBILITY. N/A MEANS
CURRENT SKY AND/OR WEATHER CONDITIONS ARE NOT AVAILABLE.

MNZ060>063-068>070-021000-
   Twin Cities Metro

CITY           SKY/WX    TMP DP  RH WIND       PRES   REMARKS
TWIN CITIES    CLEAR     68  63  84 CALM      30.10R
ST PAUL        CLEAR     63  62  97 CALM      30.10S FOG
CRYSTAL        CLEAR     64  60  87 CALM      30.09R FOG
BLAINE         CLEAR     63  63 100 CALM      30.10S
LAKEVILLE      CLEAR     63  61  94 CALM      30.11R
EDEN PRAIRIE   CLEAR     65  63  93 CALM      30.09S
SOUTH ST PAUL  CLEAR     64  62  93 CALM      30.10S
LAKE ELMO      FOG       59  59 100 CALM      30.11S VSB 1/4
$$
MNZ001>005-007-008-013>017-022>024-027-028-021000-
   Northwest Minnesota

CITY           SKY/WX    TMP DP  RH WIND       PRES   REMARKS
BEMIDJI        PTCLDY    49  48  95 CALM      30.11S
HALLOCK        CLEAR     61  57  88 S6        30.06S
ROSEAU         CLEAR     57  54  88 S3        30.08R
WARROAD        CLEAR     61  54  77 SW5       30.08S
THIEF RVR FALL CLEAR     57  55  94 SE3       30.09F
CROOKSTON      CLEAR     57  55  94 S5        30.09S
FOSSTON        CLEAR     52  48  87 CALM      30.11S FOG
DETROIT LAKES  CLEAR     61  59  94 CALM      30.12S
MOORHEAD       CLEAR     61  61 100 CALM      30.10R
PARK RAPIDS    CLEAR     56  54  93 CALM      30.11S
$$
MNZ006-009>011-018-025>026-021000-
   North Central Minnesota

CITY           SKY/WX    TMP DP  RH WIND       PRES   REMARKS
BAUDETTE       CLEAR     55  47  74 CALM      30.10R
FLAG ISLAND    PTCLDY    68  57  68 SW12      30.05S
INTL FALLS     CLEAR     45  45 100 CALM      30.09S
WASKISH        CLEAR     48  46  93 CALM      30.10S
BIG FORK       CLEAR     48  46  93 CALM      30.11S
LONGVILLE      CLEAR     54  54 100 CALM      30.10S FOG
GRAND RAPIDS   CLEAR     57  54  88 CALM      30.11S
CRANE LAKE     CLEAR     45  45 100 CALM      30.12S FOG
ORR            CLEAR     54  50  87 CALM      30.09S
COOK           CLEAR     46  45  93 CALM      30.12S
$$
MNZ012-019>021-037-021000-
   Northeast Minnesota

CITY           SKY/WX    TMP DP  RH WIND       PRES   REMARKS
DULUTH         CLEAR     55  50  83 E5        30.12S
ELY            CLEAR     46  45  93 CALM      30.12S
HIBBING        FOG       48  46  93 N3        30.12S VSB 1/4
EVELETH        FOG       48  48 100 CALM      30.13S VSB 1/2
DULUTH HARBOR  CLEAR     57  54  88 NE5       30.12S
TWO HARBORS    CLEAR     48  45  87 CALM      30.10S
SILVER BAY     CLEAR     46  46 100 CALM      30.11R
GRAND MARAIS     N/A     51  48  89 NW3       30.11R
G MARAIS ARPRT CLEAR     45  41  87 W3        30.15R
$$
MNZ029>031-032-039>041-046>048-054>057-064-021000-
   West Central Minnesota

CITY           SKY/WX    TMP DP  RH WIND       PRES   REMARKS
FERGUS FALLS   CLEAR     63  55  77 CALM      30.09F
WHEATON        PTCLDY    57  55  94 E3        30.11R
MORRIS         CLEAR     57  57 100 CALM      30.10R FOG
ALEXANDRIA     CLEAR     63  61  93 CALM      30.12S
ELBOW LAKE     FAIR      64  62  91 CALM      30.10S
WADENA         CLEAR     55  54  94 CALM      30.10F
GLENWOOD       CLEAR     61  57  88 CALM      30.12S
APPLETON       PTCLDY    61  57  88 CALM      30.09S FOG
BENSON         FOG       57  57 100 CALM      30.10S VSB 3/4
ORTONVILLE     PTCLDY    63  57  82 CALM      30.10R
MADISON        PTCLDY    64  61  88 CALM      30.10S
WILLMAR        FAIR      61  57  88 CALM      30.12S
$$
MNZ033>034-036-042>043-049>051-058-059-021000-
   Central Minnesota

CITY           SKY/WX    TMP DP  RH WIND       PRES   REMARKS
ST CLOUD       FOG       59  57  93 CALM      30.10S VSB 1/2
SAUK CENTRE    FAIR      55  55  98 CALM      30.11S FOG
PAYNESVILLE    FOG       55  55 100 CALM      30.11S VSB 1
AITKIN         MOCLDY    55  50  82 CALM      30.10R
PINE RIVER     FOG       52  52 100 CALM      30.13F VSB 1/2
BRAINERD       PTCLDY    58  57  97 CALM      30.11S FOG
STAPLES        CLEAR     55  55 100 CALM      30.10F FOG
LONG PRAIRIE   FAIR      59  57  94 CALM      30.11S FOG
LITTLE FALLS     N/A     55  54  94 CALM      30.10F FOG
LITCHFIELD       N/A     66  64  94 W3        30.11S
BUFFALO        CLEAR     62  59  90 CALM      30.11S
MAPLE LAKE     CLEAR     61  60  97 W5        30.11S FOG
$$
MNZ037-044-045-052-053-021000-
   East Central Minnesota

CITY           SKY/WX    TMP DP  RH WIND       PRES   REMARKS
PRINCETON      FOG       59  57  94 CALM      30.10S VSB 1/4
MORA             N/A     55  55 100 CALM      30.12R FOG
CAMBRIDGE      CLEAR     61  54  77 CALM      30.09R HAZE
RUSH CITY      PTCLDY    57  55  95 CALM      30.10S
MOOSE LAKE     CLEAR     54  52  94 NE3       30.10S
HINCKLEY       FAIR      57  57 100 CALM      30.10F FOG
CLOQUET        CLEAR     52  48  87 CALM      30.12S
MCGREGOR       CLEAR     54  52  94 CALM      30.12S
$$
MNZ071>073-080-081-089-090-097-098-021000-
   Southwest Minnesota

CITY           SKY/WX    TMP DP  RH WIND       PRES   REMARKS
MONTEVIDEO     PTCLDY    63  57  82 CALM      30.11S
GRANITE FALLS  PTCLDY    61  58  91 S3        30.13R
CANBY          PTCLDY    65  58  78 SW5       30.12S
MARSHALL       PTCLDY    63  55  77 SW7       30.11R
REDWOOD FALLS  CLEAR     65  58  78 S3        30.11R
OLIVIA         CLEAR     61  55  82 CALM      30.11S
PIPESTONE      MOCLDY    63  57  82 CALM      30.13F
WINDOM         CLEAR     59  55  88 CALM      30.14S
WORTHINGTON    MOCLDY    57  54  88 SW3       30.15F
JACKSON        CLEAR     59  55  88 CALM      30.14S
TRACY          PTCLDY    64  59  83 SW6       30.13S
SLAYTON        MOCLDY    60  57  89 CALM      30.15S
$$
MNZ065>067-074>077-082>085-091>093-021000-
   South Central Minnesota

CITY           SKY/WX    TMP DP  RH WIND       PRES   REMARKS
MANKATO        PTCLDY    64  55  72 SW3       30.12R
NEW ULM        CLEAR     61  61 100 W3        30.12R
ST JAMES       CLEAR     61  57  88 SW5       30.13S
FAIRMONT       CLEAR     61  55  82 W3        30.13R
GLENCOE        CLEAR     62  58  87 CALM      30.11R
FARIBAULT      CLEAR     63  55  77 CALM      30.12R HAZE
OWATONNA       CLEAR     61  57  88 CALM      30.12S
WASECA         CLEAR     55  52  88 CALM      30.14R
ALBERT LEA     CLEAR     59  57  94 CALM      30.12S
$$
MNZ078>079-086>088-094>096-021000-
   Southeast Minnesota

CITY           SKY/WX    TMP DP  RH WIND       PRES   REMARKS
ROCHESTER      CLEAR     61  56  83 SW8       30.13S
RED WING       CLEAR     63  61  94 CALM      30.09S FOG
STANTON        CLEAR     63  58  84 SW3       30.10S
DODGE CENTER   PTCLDY    61  57  88 W5        30.12S
WINONA         CLEAR     70  59  68 SW3       30.12R
AUSTIN         CLEAR     57  55  94 CALM      30.12S FOG
PRESTON        CLEAR     60  60  98 SW6       30.14R
$$
ABBREVIATIONS USED IN REMARKS
   TC - TEMPERATURES IN CELSIUS
  WCI - WIND CHILL INDEX
   HX - HEAT INDEX
  VSB - VISIBILITY
$$


USA.gov is the U.S. government's official web portal to all federal, state and local government web resources and services.